• Join FlightAware (Why Join?)
  • Login
  • US Flag 
Trick or treat! (Boo!!) 
06:23PM EDT


 

Airport Tracker/Info


-or-


 

Live Flight TrackerFlight Track Log ✈ N717AN ✈ 28-Sep-2013 ✈ KJFK - EGLL / LHR

Flight Track Log - Related Links

Times and Time Zones

All times are in EDT time to prevent confusion due to time zone crossing. See the N717AN flight status page for this flight to view local times or setup timezone preferences in your user account.

Time Position Orientation Groundspeed Altitude Reporting Facility
EDT Latitude Longitude Course Direction KTS MPH feet Rate Location/Type
10:32PM 40.6350 -73.7870 323° Northwest 150 173  Level FlightAware
10:33PM 40.6440 -73.8060 302° West 192 221 100 1,260 Climbing FlightAware
10:33PM 40.6490 -73.8230 291° West 194 223 800 2,700 Climbing FlightAware
10:33PM 40.6490 -73.8280 270° West 196 226 1,000 1,920 Climbing FlightAware
10:33PM 40.6400 -73.8570 248° West 219 252 1,700 1,620 Climbing FlightAware
10:34PM 40.6250 -73.8770 225° Southwest 247 284 2,200 1,680 Climbing FlightAware
10:34PM 40.6170 -73.8840 214° Southwest 255 293 2,500 2,460 Climbing FlightAware
10:34PM 40.6130 -73.8870 210° Southwest 257 296 2,700 2,460 Climbing FlightAware
10:34PM 40.6030 -73.8900 193° South 264 304 3,000 2,880 Climbing FlightAware
10:34PM 40.5720 -73.8750 160° South 258 297 4,500 2,880 Climbing FlightAware
10:35PM 40.5670 -73.8680 133° Southeast 258 297 4,800 2,760 Climbing FlightAware
10:35PM 40.5640 -73.8600 116° Southeast 257 296 5,100 3,960 Climbing FlightAware
10:35PM 40.5610 -73.8480 108° East 254 292 5,600 3,960 Climbing FlightAware
10:35PM 40.5590 -73.8350 101° East 254 292 6,100 3,060 Climbing FlightAware
10:35PM 40.5620 -73.7920 85° East 265 305 7,400 2,640 Climbing FlightAware
10:36PM 40.5650 -73.7590 83° East 279 321 8,200 2,760 Climbing FlightAware
10:36PM 40.5690 -73.7180 83° East 282 325 9,500 2,940 Climbing FlightAware
10:37PM 40.5750 -73.6620 82° East 297 342 11,000 2,340 Climbing FlightAware
10:37PM 40.5820 -73.6040 81° East 320 368 12,000 2,340 Climbing FlightAware
10:38PM 40.5890 -73.5420 82° East 327 376 13,500 3,000 Climbing FlightAware
10:38PM 40.5878 -73.5483 256° West 329 379 14,000 3,000 Climbing FlightAware ADS-B (KSNC)
10:38PM 40.5985 -73.4546 81° East 334 384 15,700 2,580 Climbing FlightAware ADS-B (KSNC)
10:39PM 40.6103 -73.3466 82° East 350 403 17,800 2,400 Climbing FlightAware ADS-B (KSNC)
10:40PM 40.6189 -73.2668 82° East 360 414 19,300 2,280 Climbing FlightAware ADS-B (KSNC)
10:41PM 40.6283 -73.1791 82° East 369 425 20,800 2,100 Climbing FlightAware ADS-B (KSNC)
10:41PM 40.6378 -73.0895 82° East 379 436 22,100 2,040 Climbing FlightAware ADS-B (KSNC)
10:42PM 40.6460 -73.0080 82° East 383 441 23,400 2,160 Climbing FlightAware
10:42PM 40.6469 -73.0038 74° East 385 443 23,600 1,980 Climbing FlightAware ADS-B (KSNC)
10:42PM 40.6545 -72.9299 82° East 390 449 24,600 1,860 Climbing FlightAware ADS-B (KSNC)
10:43PM 40.6630 -72.8480 82° East 395 455 25,600 1,800 Climbing FlightAware
10:43PM 40.6658 -72.8215 82° East 398 458 25,900 1,560 Climbing FlightAware ADS-B (KSNC)
10:44PM 40.6733 -72.7484 82° East 404 465 26,700 1,560 Climbing FlightAware ADS-B (KSNC)
10:44PM 40.6808 -72.6760 82° East 409 471 27,500 1,560 Climbing FlightAware ADS-B (KSNC)
10:45PM 40.6888 -72.5983 82° East 416 479 28,300 1,500 Climbing FlightAware ADS-B (KSNC)
10:45PM 40.6964 -72.5216 82° East 420 483 29,100 1,620 Climbing FlightAware ADS-B (KSNC)
10:46PM 40.7054 -72.4315 82° East 422 486 30,100 1,500 Climbing FlightAware ADS-B (KSNC)
10:46PM 40.7151 -72.3339 82° East 429 494 31,000 660 Climbing FlightAware ADS-B (KSNC)
10:47PM 40.7253 -72.2311 83° East 448 516 31,000  Level FlightAware ADS-B (KSNC)
10:48PM 40.7344 -72.1385 83° East 454 522 31,000  Level FlightAware ADS-B (KSNC)
10:48PM 40.7418 -72.0616 83° East 457 526 31,000  Level FlightAware ADS-B (KSNC)
10:49PM 40.7530 -71.9480 83° East 458 527 31,000  Level FlightAware
10:49PM 40.7552 -71.9229 84° East 459 528 31,000  Level FlightAware ADS-B (KSNC)
10:50PM 40.7588 -71.8850 83° East 460 529 31,000  Level FlightAware ADS-B (KSNC)
10:51PM 40.7810 -71.6520 83° East 458 527 31,000  Level FlightAware
10:51PM 40.7805 -71.6528 230° Southwest 458 527 31,000  Level FlightAware ADS-B (KSNC)
10:52PM 40.7980 -71.4580 83° East 459 528 31,000  Level FlightAware
10:52PM 40.8080 -71.3560 83° East 459 528 31,000  Level FlightAware
10:53PM 40.8150 -71.2700 84° East 460 529 31,000  Level FlightAware
10:53PM 40.8250 -71.1630 83° East 459 528 31,000  Level FlightAware
10:54PM 40.8330 -71.0700 83° East 458 527 31,000  Level FlightAware
10:55PM 40.8410 -70.9760 84° East 457 526 31,000  Level FlightAware
10:55PM 40.8500 -70.8740 83° East 456 525 31,000  Level FlightAware
10:56PM 40.8590 -70.7740 83° East 457 526 31,000  Level FlightAware
10:56PM 40.8660 -70.6880 84° East 457 526 31,000  Level FlightAware
10:57PM 40.8750 -70.5870 83° East 456 525 31,000  Level FlightAware
10:58PM 40.8820 -70.4910 84° East 455 524 31,000  Level FlightAware
10:58PM 40.8910 -70.3890 83° East 455 524 31,000  Level FlightAware
10:59PM 40.8980 -70.2990 84° East 456 525 31,000  Level FlightAware
10:59PM 40.9050 -70.2070 84° East 456 525 31,000  Level FlightAware
11:00PM 40.9150 -70.1060 83° East 456 525 31,000  Level FlightAware
11:01PM 40.9220 -70.0220 84° East 456 525 31,000  Level FlightAware
11:01PM 40.9300 -69.9370 83° East 456 525 31,000  Level FlightAware
11:02PM 40.9380 -69.8520 83° East 456 525 31,000  Level FlightAware
11:02PM 40.9460 -69.7670 83° East 456 525 31,000  Level FlightAware
11:03PM 40.9540 -69.6820 83° East 456 525 31,000  Level FlightAware
11:04PM 40.9620 -69.5970 83° East 456 525 31,000  Level FlightAware
11:04PM 40.9700 -69.5130 83° East 456 525 31,000  Level FlightAware
11:05PM 40.9770 -69.4280 84° East 456 525 31,000  Level FlightAware
11:05PM 40.9850 -69.3430 83° East 456 525 31,000  Level FlightAware
11:06PM 40.9930 -69.2630 82° East 456 525 31,000  Level FlightAware
11:06PM 41.0010 -69.1780 83° East 456 525 31,000  Level FlightAware
11:07PM 41.0080 -69.0930 84° East 456 525 31,000  Level FlightAware
11:08PM 41.0160 -69.0080 83° East 456 525 31,000  Level FlightAware
11:08PM 41.0240 -68.9230 83° East 456 525 31,000  Level FlightAware
11:09PM 41.0320 -68.8380 83° East 456 525 31,000 2,100 Level FlightAware
11:10PM 41.0356 -68.3878 83° East 463 533 34,900 1,680 Climbing New York Center
11:11PM 41.0444 -68.2142 86° East 463 533 34,900  Level New York Center
11:12PM 41.0575 -68.0431 84° East 463 533 35,000  Climbing New York Center
11:13PM 41.0681 -67.8719 85° East 463 533 35,000 -60 Level New York Center
11:14PM 41.0764 -67.6983 86° East 463 533 34,900 -60 Descending New York Center
11:15PM 41.0864 -67.5272 86° East 463 533 34,900  Level New York Center
11:16PM 41.0964 -67.3561 86° East 463 533 34,900  Level New York Center
11:17PM 41.1061 -67.1850 86° East 463 533 35,000  Climbing New York Center
11:18PM 41.1167 -67.0000 78° East 471 542 35,000  Level New York Oceanic (ODAPS)
11:22PM 47.2260 -65.5830 86° East 35,000  Level FlightAware
11:23PM 47.3450 -65.4380 40° Northeast 777 894 35,000  Level FlightAware
11:24PM 41.2680 -66.0180 78° East 467 537 35,000  Level FlightAware
11:25PM 41.2890 -65.8770 79° East 467 537 35,000  Level FlightAware
11:26PM 41.3020 -65.7880 79° East 467 537 35,000  Level FlightAware
11:26PM 41.3140 -65.7020 79° East 467 537 35,000  Level FlightAware
11:27PM 41.3167 -65.6833 79° East 474 545 35,000  Level New York Oceanic (ODAPS)
11:27PM 41.3270 -65.6150 79° East 467 537 35,000  Level FlightAware
11:27PM 41.3400 -65.5290 79° East 467 537 35,000  Level FlightAware
11:28PM 47.4580 -64.5690 North 35,000  Level FlightAware
11:28PM 47.4620 -64.5420 78° East 469 540 35,000  Level FlightAware
11:28PM 41.3780 -65.2600 185° South 470 541 35,000  Level FlightAware
11:29PM 41.3920 -65.1670 79° East 471 542 35,000  Level FlightAware
11:30PM 41.4040 -65.0830 79° East 471 542 35,000  Level FlightAware
11:30PM 41.4220 -64.9550 79° East 473 544 35,000  Level FlightAware
11:31PM 41.4340 -64.8690 79° East 474 545 35,000  Level FlightAware
11:32PM 41.4510 -64.7390 80° East 475 547 35,000  Level FlightAware
11:32PM 41.4730 -64.5850 80° East 477 549 35,000  Level FlightAware
11:33PM 41.4849 -64.4882 80° East 474 545 35,000  Level FlightAware Transoceanic
11:33PM 41.4930 -64.4350 80° East 478 550 35,000  Level FlightAware
11:34PM 41.5040 -64.3460 81° East 478 550 35,000  Level FlightAware
11:35PM 41.5160 -64.2570 80° East 478 550 35,000  Level FlightAware
11:35PM 41.5280 -64.1680 80° East 478 550 35,000  Level FlightAware
11:36PM 41.5400 -64.0790 80° East 478 550 35,000  Level FlightAware
11:36PM 41.5640 -63.8930 80° East 484 557 35,000  Level FlightAware
11:37PM 41.5760 -63.8010 80° East 485 558 35,000  Level FlightAware
11:38PM 41.5940 -63.6680 80° East 486 559 35,000  Level FlightAware
11:38PM 41.6080 -63.5540 81° East 487 560 35,000  Level FlightAware
11:39PM 41.6220 -63.4450 80° East 488 562 35,000  Level FlightAware
11:39PM 41.6340 -63.3440 81° East 489 563 35,000  Level FlightAware
11:40PM 41.6500 -63.2667 81° East 487 560 35,000  Level New York Oceanic (ODAPS)
11:40PM 41.6470 -63.2450 80° East 488 562 35,000  Level FlightAware
11:41PM 41.6600 -63.1340 81° East 490 564 35,000  Level FlightAware
11:41PM 41.6740 -63.0180 81° East 490 564 35,000  Level FlightAware
11:42PM 41.6880 -62.9000 81° East 493 567 35,000  Level FlightAware
11:43PM 41.7040 -62.7740 80° East 493 567 35,000  Level FlightAware
11:43PM 41.7150 -62.6790 81° East 493 567 35,000  Level FlightAware
11:44PM 41.7260 -62.5870 81° East 493 567 35,000  Level FlightAware
11:45PM 41.7520 -62.3670 81° East 495 570 35,000  Level FlightAware
11:46PM 41.7705 -62.2390 81° East 487 560 35,000  Level FlightAware Transoceanic
11:46PM 41.7630 -62.2670 81° East 495 570 35,000  Level FlightAware
11:46PM 41.7740 -62.1740 81° East 495 570 35,000  Level FlightAware
11:47PM 41.7860 -62.0780 80° East 495 570 35,000  Level FlightAware
11:47PM 41.7970 -61.9860 81° East 495 570 35,000  Level FlightAware
11:48PM 41.8080 -61.8930 81° East 495 570 35,000  Level FlightAware
11:49PM 41.8390 -61.5870 82° East 503 579 35,000  Level FlightAware
11:50PM 41.8510 -61.4740 82° East 503 579 35,000  Level FlightAware
11:50PM 41.8650 -61.3420 82° East 504 580 35,000  Level FlightAware
11:51PM 41.8830 -61.1780 82° East 505 581 35,000  Level FlightAware
11:52PM 41.8930 -61.0830 82° East 505 581 35,000  Level FlightAware
11:53PM 41.9030 -60.9880 82° East 505 581 35,000  Level FlightAware
11:53PM 41.9180 -60.8380 82° East 506 582 35,000  Level FlightAware
11:54PM 41.9333 -60.7333 83° East 502 578 35,000  Level New York Oceanic (ODAPS)
11:54PM 41.9280 -60.7430 82° East 506 582 35,000  Level FlightAware
11:55PM 41.9380 -60.6450 82° East 506 582 35,000  Level FlightAware
11:55PM 41.9480 -60.5490 82° East 506 582 35,000  Level FlightAware
11:56PM 41.9580 -60.4540 82° East 506 582 35,000  Level FlightAware
11:56PM 41.9680 -60.3580 82° East 506 582 35,000  Level FlightAware
11:57PM 41.9780 -60.2630 82° East 506 582 35,000  Level FlightAware
11:58PM 41.9880 -60.1650 82° East 506 582 35,000  Level FlightAware
11:58PM 42.0000 -60.0000 79° East 508 585 35,000  Level New York Oceanic (ODAPS)
11:58PM 41.9980 -60.0700 82° East 506 582 35,000  Level FlightAware
11:59PM 42.0080 -59.9740 82° East 506 582 35,000  Level FlightAware
11:59PM 42.0180 -59.8790 83° East 506 582 35,000  Level FlightAware
12:00AM 42.0280 -59.7800 82° East 506 582 35,000  Level FlightAware
12:01AM 42.0380 -59.6850 82° East 506 582 35,000  Level FlightAware
12:01AM 42.0480 -59.5890 82° East 506 582 35,000  Level FlightAware
12:02AM 42.0580 -59.4940 82° East 506 582 35,000  Level FlightAware
12:02AM 42.0680 -59.3980 82° East 506 582 35,000  Level FlightAware
12:04AM 42.1565 -58.8856 80° East 508 585 35,000  Level FlightAware Transoceanic
12:05AM 42.1815 -58.6994 80° East 508 585 35,000  Level FlightAware Transoceanic
12:06AM 42.2063 -58.5130 80° East 508 585 35,000  Level FlightAware Transoceanic
12:07AM 42.2307 -58.3264 80° East 508 585 35,000  Level FlightAware Transoceanic
12:08AM 42.2548 -58.1398 80° East 508 585 35,000  Level FlightAware Transoceanic
12:08AM 42.2500 -58.1333 80° East 517 595 35,000  Level New York Oceanic (ODAPS)
12:09AM 42.2786 -57.9529 80° East 508 585 35,000  Level FlightAware Transoceanic
12:10AM 42.3022 -57.7659 80° East 508 585 35,000  Level FlightAware Transoceanic
12:11AM 42.3254 -57.5788 81° East 508 585 35,000  Level FlightAware Transoceanic
12:12AM 42.3483 -57.3916 81° East 508 585 35,000  Level FlightAware Transoceanic
12:13AM 42.3709 -57.2042 81° East 508 585 35,000  Level FlightAware Transoceanic
12:14AM 42.3922 -56.9845 81° East 517 595 35,000  Level FlightAware Transoceanic
12:15AM 42.4147 -56.7925 81° East 517 595 35,000  Level FlightAware Transoceanic
12:16AM 42.4370 -56.6004 81° East 517 595 35,000  Level FlightAware Transoceanic
12:17AM 42.4589 -56.4081 81° East 517 595 35,000  Level FlightAware Transoceanic
12:18AM 42.4806 -56.2157 81° East 517 595 35,000  Level FlightAware Transoceanic
12:19AM 42.5019 -56.0232 82° East 517 595 35,000  Level FlightAware Transoceanic
12:20AM 42.5228 -55.8306 82° East 517 595 35,000  Level FlightAware Transoceanic
12:21AM 42.5435 -55.6378 82° East 517 595 35,000  Level FlightAware Transoceanic
12:22AM 42.5638 -55.4449 82° East 517 595 35,000  Level FlightAware Transoceanic
12:22AM 42.5667 -55.4500 82° East 528 608 35,000  Level New York Oceanic (ODAPS)
12:23AM 42.5838 -55.2519 82° East 517 595 35,000  Level FlightAware Transoceanic
12:24AM 42.6035 -55.0587 82° East 517 595 35,000  Level FlightAware Transoceanic
12:25AM 42.6228 -54.8655 82° East 517 595 35,000  Level FlightAware Transoceanic
12:26AM 42.6418 -54.6721 82° East 517 595 35,000  Level FlightAware Transoceanic
12:27AM 42.6605 -54.4786 83° East 517 595 35,000  Level FlightAware Transoceanic
12:28AM 42.6852 -54.2458 83° East 528 608 35,000  Level FlightAware Transoceanic
12:29AM 42.7038 -54.0447 83° East 528 608 35,000  Level FlightAware Transoceanic
12:30AM 42.7220 -53.8434 83° East 528 608 35,000  Level FlightAware Transoceanic
12:31AM 42.7398 -53.6421 83° East 528 608 35,000  Level FlightAware Transoceanic
12:32AM 42.7573 -53.4406 83° East 528 608 35,000  Level FlightAware Transoceanic
12:33AM 42.7744 -53.2390 83° East 528 608 35,000  Level FlightAware Transoceanic
12:34AM 42.7912 -53.0373 84° East 528 608 35,000  Level FlightAware Transoceanic
12:35AM 42.8076 -52.8355 84° East 528 608 35,000  Level FlightAware Transoceanic
12:35AM 42.8167 -52.7833 84° East 509 586 35,000  Level New York Oceanic (ODAPS)
12:36AM 42.8236 -52.6336 84° East 528 608 35,000  Level FlightAware Transoceanic
12:37AM 42.8393 -52.4315 84° East 528 608 35,000  Level FlightAware Transoceanic
12:38AM 42.8547 -52.2294 84° East 528 608 35,000  Level FlightAware Transoceanic
12:39AM 42.8697 -52.0272 84° East 528 608 35,000  Level FlightAware Transoceanic
12:40AM 42.8843 -51.8249 84° East 528 608 35,000  Level FlightAware Transoceanic
12:41AM 42.8986 -51.6225 85° East 528 608 35,000  Level FlightAware Transoceanic
12:42AM 42.9035 -51.5925 85° East 509 586 35,000  Level FlightAware Transoceanic
12:43AM 42.9168 -51.3937 85° East 509 586 35,000  Level FlightAware Transoceanic
12:44AM 42.9297 -51.1949 85° East 509 586 35,000  Level FlightAware Transoceanic
12:45AM 42.9423 -50.9959 85° East 509 586 35,000  Level FlightAware Transoceanic
12:46AM 42.9545 -50.7969 85° East 509 586 35,000  Level FlightAware Transoceanic
12:47AM 42.9664 -50.5978 85° East 509 586 35,000  Level FlightAware Transoceanic
12:48AM 42.9779 -50.3986 86° East 509 586 35,000  Level FlightAware Transoceanic
12:49AM 42.9891 -50.1993 86° East 509 586 35,000  Level FlightAware Transoceanic
12:49AM 43.0000 -50.1000 90° East 496 571 35,000  Level New York Oceanic (ODAPS)
12:50AM 43.0000 -50.0000 71° East 509 586 35,000  Level FlightAware Transoceanic
12:50AM 43.0000 -50.0000 71° East 509 586 35,000  Level New York Oceanic (ODAPS)
12:51AM 43.0456 -49.8178 71° East 509 586 35,000  Level FlightAware Transoceanic
12:52AM 43.0910 -49.6354 71° East 509 586 35,000  Level FlightAware Transoceanic
12:53AM 43.1360 -49.4527 71° East 509 586 35,000  Level FlightAware Transoceanic
12:54AM 43.1808 -49.2698 72° East 509 586 35,000  Level FlightAware Transoceanic
12:55AM 43.2253 -49.0866 72° East 509 586 35,000  Level FlightAware Transoceanic
12:56AM 43.2694 -48.9031 72° East 509 586 35,000  Level FlightAware Transoceanic
12:57AM 43.3133 -48.7193 72° East 509 586 35,000  Level FlightAware Transoceanic
12:58AM 43.3569 -48.5353 72° East 509 586 35,000  Level FlightAware Transoceanic
12:59AM 43.4002 -48.3510 72° East 509 586 35,000  Level FlightAware Transoceanic
01:00AM 43.4432 -48.1665 72° East 509 586 35,000  Level FlightAware Transoceanic
01:01AM 43.4859 -47.9817 72° East 509 586 35,000  Level FlightAware Transoceanic
01:02AM 43.5283 -47.7966 73° East 509 586 35,000  Level FlightAware Transoceanic
01:03AM 43.5704 -47.6113 73° East 509 586 35,000  Level FlightAware Transoceanic
01:03AM 43.5667 -47.6000 73° East 491 565 35,000  Level New York Oceanic (ODAPS)
01:04AM 43.6122 -47.4257 73° East 509 586 35,000  Level FlightAware Transoceanic
01:05AM 43.6537 -47.2398 73° East 509 586 35,000  Level FlightAware Transoceanic
01:06AM 43.6949 -47.0537 73° East 509 586 35,000  Level FlightAware Transoceanic
01:07AM 43.7358 -46.8674 73° East 509 586 35,000  Level FlightAware Transoceanic
01:08AM 43.7764 -46.6808 73° East 509 586 35,000  Level FlightAware Transoceanic
01:09AM 43.8019 -46.5377 73° East 491 565 35,000  Level FlightAware Transoceanic
01:10AM 43.8402 -46.3598 73° East 491 565 35,000  Level FlightAware Transoceanic
01:11AM 43.8782 -46.1817 74° East 491 565 35,000  Level FlightAware Transoceanic
01:12AM 43.9159 -46.0034 74° East 491 565 35,000  Level FlightAware Transoceanic
01:13AM 43.9533 -45.8249 74° East 491 565 35,000  Level FlightAware Transoceanic
01:14AM 43.9904 -45.6461 74° East 491 565 35,000  Level FlightAware Transoceanic
01:15AM 44.0273 -45.4671 74° East 491 565 35,000  Level FlightAware Transoceanic
01:16AM 44.0639 -45.2879 74° East 491 565 35,000  Level FlightAware Transoceanic
01:17AM 44.1002 -45.1085 74° East 491 565 35,000 600 Level FlightAware Transoceanic
01:17AM 44.1000 -45.1333 74° East 504 580 36,000  Climbing New York Oceanic (ODAPS)
01:18AM 44.1362 -44.9289 74° East 491 565 35,000 -720 Descending FlightAware Transoceanic
01:19AM 44.1719 -44.7490 75° East 491 565 35,000  Level FlightAware Transoceanic
01:20AM 44.2074 -44.5689 75° East 491 565 35,000  Level FlightAware Transoceanic
01:21AM 44.2425 -44.3886 75° East 491 565 35,000  Level FlightAware Transoceanic
01:22AM 44.2774 -44.2081 75° East 491 565 35,000 480 Level FlightAware Transoceanic
01:23AM 44.3198 -44.0066 75° East 504 580 36,000 480 Climbing FlightAware Transoceanic
01:24AM 44.3553 -43.8180 75° East 504 580 36,000  Level FlightAware Transoceanic
01:25AM 44.3905 -43.6291 75° East 504 580 36,000  Level FlightAware Transoceanic
01:26AM 44.4255 -43.4401 76° East 504 580 36,000  Level FlightAware Transoceanic
01:27AM 44.4601 -43.2508 76° East 504 580 36,000  Level FlightAware Transoceanic
01:28AM 44.4944 -43.0613 76° East 504 580 36,000  Level FlightAware Transoceanic
01:29AM 44.5284 -42.8715 76° East 504 580 36,000  Level FlightAware Transoceanic
01:30AM 44.5620 -42.6816 76° East 504 580 36,000  Level FlightAware Transoceanic
01:31AM 44.5954 -42.4914 76° East 504 580 36,000  Level FlightAware Transoceanic
01:32AM 44.6284 -42.3010 76° East 504 580 36,000  Level FlightAware Transoceanic
01:33AM 44.6612 -42.1104 77° East 504 580 36,000  Level FlightAware Transoceanic
01:34AM 44.6936 -41.9196 77° East 504 580 36,000  Level FlightAware Transoceanic
01:35AM 44.7256 -41.7286 77° East 504 580 36,000  Level FlightAware Transoceanic
01:36AM 44.7574 -41.5373 77° East 504 580 36,000  Level FlightAware Transoceanic
01:37AM 44.7889 -41.3459 77° East 504 580 36,000  Level FlightAware Transoceanic
01:38AM 44.8200 -41.1542 77° East 504 580 36,000  Level FlightAware Transoceanic
01:39AM 44.8508 -40.9623 77° East 504 580 36,000  Level FlightAware Transoceanic
01:40AM 44.8813 -40.7703 77° East 504 580 36,000  Level FlightAware Transoceanic
01:41AM 44.9114 -40.5780 78° East 504 580 36,000  Level FlightAware Transoceanic
01:42AM 44.9413 -40.3855 78° East 504 580 36,000  Level FlightAware Transoceanic
01:43AM 44.9708 -40.1929 78° East 504 580 36,000  Level FlightAware Transoceanic
01:44AM 45.0000 -40.0000 78° East 504 580 36,000  Level FlightAware Transoceanic
01:45AM 45.0290 -39.7999 78° East 504 580 36,000  Level FlightAware Transoceanic
01:46AM 45.0577 -39.5996 79° East 504 580 36,000  Level FlightAware Transoceanic
01:47AM 45.0860 -39.3992 79° East 504 580 36,000  Level FlightAware Transoceanic
01:48AM 45.1140 -39.1985 79° East 504 580 36,000  Level FlightAware Transoceanic
01:49AM 45.1417 -38.9976 79° East 504 580 36,000  Level FlightAware Transoceanic
01:50AM 45.1689 -38.7965 79° East 504 580 36,000  Level FlightAware Transoceanic
01:51AM 45.1959 -38.5953 79° East 504 580 36,000  Level FlightAware Transoceanic
01:52AM 45.2224 -38.3938 79° East 504 580 36,000  Level FlightAware Transoceanic
01:53AM 45.2486 -38.1922 80° East 504 580 36,000  Level FlightAware Transoceanic
01:54AM 45.2745 -37.9903 80° East 504 580 36,000  Level FlightAware Transoceanic
01:55AM 45.3000 -37.7883 80° East 504 580 36,000  Level FlightAware Transoceanic
01:56AM 45.3252 -37.5862 80° East 504 580 36,000  Level FlightAware Transoceanic
01:57AM 45.3499 -37.3838 80° East 504 580 36,000  Level FlightAware Transoceanic
01:58AM 45.3744 -37.1813 80° East 504 580 36,000  Level FlightAware Transoceanic
01:59AM 45.3985 -36.9785 80° East 504 580 36,000  Level FlightAware Transoceanic
02:00AM 45.4222 -36.7757 81° East 504 580 36,000  Level FlightAware Transoceanic
02:01AM 45.4455 -36.5726 81° East 504 580 36,000  Level FlightAware Transoceanic
02:02AM 45.4685 -36.3694 81° East 504 580 36,000  Level FlightAware Transoceanic
02:03AM 45.4912 -36.1660 81° East 504 580 36,000  Level FlightAware Transoceanic
02:04AM 45.5134 -35.9624 81° East 504 580 36,000  Level FlightAware Transoceanic
02:05AM 45.5354 -35.7587 81° East 504 580 36,000  Level FlightAware Transoceanic
02:06AM 45.5569 -35.5549 81° East 504 580 36,000  Level FlightAware Transoceanic
02:07AM 45.5781 -35.3508 82° East 504 580 36,000  Level FlightAware Transoceanic
02:08AM 45.5989 -35.1467 82° East 504 580 36,000  Level FlightAware Transoceanic
02:09AM 45.6194 -34.9423 82° East 504 580 36,000  Level FlightAware Transoceanic
02:10AM 45.6395 -34.7379 82° East 504 580 36,000  Level FlightAware Transoceanic
02:11AM 45.6592 -34.5332 82° East 504 580 36,000  Level FlightAware Transoceanic
02:12AM 45.6786 -34.3285 82° East 504 580 36,000  Level FlightAware Transoceanic
02:13AM 45.6976 -34.1236 83° East 504 580 36,000  Level FlightAware Transoceanic
02:14AM 45.7162 -33.9185 83° East 504 580 36,000  Level FlightAware Transoceanic
02:15AM 45.7345 -33.7134 83° East 504 580 36,000  Level FlightAware Transoceanic
02:16AM 45.7524 -33.5081 83° East 504 580 36,000  Level FlightAware Transoceanic
02:17AM 45.7699 -33.3026 83° East 504 580 36,000  Level FlightAware Transoceanic
02:18AM 45.7871 -33.0971 83° East 504 580 36,000  Level FlightAware Transoceanic
02:19AM 45.8038 -32.8914 83° East 504 580 36,000  Level FlightAware Transoceanic
02:20AM 45.8203 -32.6856 84° East 504 580 36,000  Level FlightAware Transoceanic
02:21AM 45.8363 -32.4796 84° East 504 580 36,000  Level FlightAware Transoceanic
02:22AM 45.8520 -32.2736 84° East 504 580 36,000  Level FlightAware Transoceanic
02:23AM 45.8673 -32.0674 84° East 504 580 36,000  Level FlightAware Transoceanic
02:24AM 45.8823 -31.8611 84° East 504 580 36,000  Level FlightAware Transoceanic
02:25AM 45.8968 -31.6547 84° East 504 580 36,000  Level FlightAware Transoceanic
02:26AM 45.9110 -31.4482 84° East 504 580 36,000  Level FlightAware Transoceanic
02:27AM 45.9249 -31.2416 85° East 504 580 36,000  Level FlightAware Transoceanic
02:28AM 45.9383 -31.0349 85° East 504 580 36,000  Level FlightAware Transoceanic
02:29AM 45.9514 -30.8281 85° East 504 580 36,000  Level FlightAware Transoceanic
02:30AM 45.9641 -30.6212 85° East 504 580 36,000  Level FlightAware Transoceanic
02:31AM 45.9765 -30.4142 85° East 504 580 36,000  Level FlightAware Transoceanic
02:32AM 45.9884 -30.2072 85° East 504 580 36,000  Level FlightAware Transoceanic
02:33AM 46.0469 -30.0384 63° Northeast  Level Estimated
02:34AM 46.1048 -29.8705 64° Northeast  Level Estimated
02:35AM 46.1624 -29.7022 64° Northeast  Level Estimated
02:36AM 46.2197 -29.5336 64° Northeast  Level Estimated
02:37AM 46.2768 -29.3646 64° Northeast  Level Estimated
02:38AM 46.3337 -29.1953 64° Northeast  Level Estimated
02:39AM 46.3903 -29.0257 64° Northeast  Level Estimated
02:40AM 46.4466 -28.8556 64° Northeast  Level Estimated
02:41AM 46.5027 -28.6853 64° Northeast  Level Estimated
02:42AM 46.5586 -28.5145 65° Northeast  Level Estimated
02:43AM 46.6141 -28.3435 65° Northeast  Level Estimated
02:44AM 46.6695 -28.1721 65° Northeast  Level Estimated
02:45AM 46.7245 -28.0003 65° Northeast  Level Estimated
02:46AM 46.7794 -27.8282 65° Northeast  Level Estimated
02:47AM 46.8339 -27.6557 65° Northeast  Level Estimated
02:48AM 46.8882 -27.4829 65° Northeast  Level Estimated
02:49AM 46.9423 -27.3097 65° Northeast  Level Estimated
02:50AM 46.9962 -27.1358 66° East  Level Estimated
02:51AM 47.0498 -26.9615 66° East  Level Estimated
02:52AM 47.1032 -26.7868 66° East  Level Estimated
02:53AM 47.1563 -26.6118 66° East  Level Estimated
02:54AM 47.2092 -26.4365 66° East  Level Estimated
02:55AM 47.2617 -26.2608 66° East  Level Estimated
02:56AM 47.3141 -26.0847 66° East  Level Estimated
02:57AM 47.3661 -25.9083 66° East  Level Estimated
02:58AM 47.4179 -25.7316 67° East  Level Estimated
02:59AM 47.4694 -25.5545 67° East  Level Estimated
03:00AM 47.5206 -25.3771 67° East  Level Estimated
03:01AM 47.5715 -25.1993 67° East  Level Estimated
03:02AM 47.6222 -25.0212 67° East  Level Estimated
03:03AM 47.6726 -24.8427 67° East  Level Estimated
03:04AM 47.7227 -24.6639 67° East  Level Estimated
03:05AM 47.7726 -24.4847 67° East  Level Estimated
03:06AM 47.8221 -24.3052 68° East  Level Estimated
03:07AM 47.8714 -24.1254 68° East  Level Estimated
03:08AM 47.9204 -23.9452 68° East  Level Estimated
03:09AM 47.9691 -23.7647 68° East  Level Estimated
03:10AM 48.0176 -23.5838 68° East  Level Estimated
03:11AM 48.0657 -23.4026 68° East  Level Estimated
03:12AM 48.1136 -23.2211 68° East  Level Estimated
03:13AM 48.1612 -23.0392 69° East  Level Estimated
03:14AM 48.2085 -22.8570 69° East  Level Estimated
03:15AM 48.2555 -22.6744 69° East  Level Estimated
03:16AM 48.3022 -22.4915 69° East  Level Estimated
03:17AM 48.3486 -22.3083 69° East  Level Estimated
03:18AM 48.3947 -22.1248 69° East  Level Estimated
03:19AM 48.4406 -21.9409 69° East  Level Estimated
03:20AM 48.4861 -21.7567 69° East  Level Estimated
03:21AM 48.5314 -21.5721 70° East  Level Estimated
03:22AM 48.5763 -21.3872 70° East  Level Estimated
03:23AM 48.6210 -21.2020 70° East  Level Estimated
03:24AM 48.6653 -21.0165 70° East  Level Estimated
03:25AM 48.7094 -20.8306 70° East  Level Estimated
03:26AM 48.7532 -20.6445 70° East  Level Estimated
03:27AM 48.7966 -20.4580 70° East  Level Estimated
03:28AM 48.8398 -20.2711 71° East  Level Estimated
03:29AM 48.8826 -20.0840 71° East  Level Estimated
03:30AM 48.9252 -19.8965 71° East  Level Estimated
03:31AM 48.9674 -19.7087 71° East  Level Estimated
03:32AM 49.0094 -19.5206 71° East  Level Estimated
03:33AM 49.0510 -19.3322 71° East  Level Estimated
03:34AM 49.0924 -19.1435 71° East  Level Estimated
03:35AM 49.1334 -18.9544 72° East  Level Estimated
03:36AM 49.1741 -18.7651 72° East  Level Estimated
03:37AM 49.2145 -18.5754 72° East  Level Estimated
03:38AM 49.2546 -18.3854 72° East  Level Estimated
03:39AM 49.2944 -18.1951 72° East  Level Estimated
03:40AM 49.3339 -18.0045 72° East  Level Estimated
03:41AM 49.3730 -17.8136 72° East  Level Estimated
03:42AM 49.4119 -17.6224 73° East  Level Estimated
03:43AM 49.4504 -17.4309 73° East  Level Estimated
03:44AM 49.4886 -17.2391 73° East  Level Estimated
03:45AM 49.5265 -17.0470 73° East  Level Estimated
03:46AM 49.5641 -16.8546 73° East  Level Estimated
03:47AM 49.6013 -16.6619 73° East  Level Estimated
03:48AM 49.6383 -16.4690 73° East  Level Estimated
03:49AM 49.6749 -16.2757 74° East  Level Estimated
03:50AM 49.7112 -16.0821 74° East  Level Estimated
03:51AM 49.7471 -15.8882 74° East  Level Estimated
03:52AM 49.7828 -15.6941 74° East  Level Estimated
03:53AM 49.8181 -15.4997 74° East  Level Estimated
03:54AM 49.8531 -15.3050 74° East  Level Estimated
03:55AM 49.8877 -15.1100 75° East  Level Estimated
03:56AM 49.9221 -14.9147 75° East  Level Estimated
03:57AM 49.9561 -14.7191 75° East  Level Estimated
03:58AM 49.9898 -14.5233 75° East  Level Estimated
03:59AM 50.0231 -14.3272 75° East  Level Estimated
04:00AM 50.0561 -14.1309 75° East  Level Estimated
04:01AM 50.0888 -13.9342 75° East  Level Estimated
04:02AM 50.1212 -13.7373 76° East  Level Estimated
04:03AM 50.1532 -13.5401 76° East  Level Estimated
04:04AM 50.1849 -13.3427 76° East  Level Estimated
04:05AM 50.2163 -13.1450 76° East  Level Estimated
04:06AM 50.2473 -12.9471 76° East  Level Estimated
04:07AM 50.2780 -12.7489 76° East  Level Estimated
04:08AM 50.3083 -12.5504 76° East  Level Estimated
04:09AM 50.3383 -12.3517 77° East  Level Estimated
04:09AM 49.3040 -9.9460 77° East 484 557 37,000  Level FlightAware
04:10AM 50.3680 -12.1527 77° East  Level Estimated
04:10AM 49.3380 -9.7910 71° East 484 557 37,000  Level FlightAware
04:11AM 49.3650 -9.6590 73° East 482 555 37,000  Level FlightAware
04:11AM 49.3950 -9.5160 72° East 481 554 37,000  Level FlightAware
04:12AM 49.4170 -9.4120 72° East 481 554 37,000  Level FlightAware
04:13AM 49.4420 -9.2950 72° East 479 551 37,000  Level FlightAware
04:13AM 49.4670 -9.1750 72° East 476 548 37,000  Level FlightAware
04:14AM 49.4880 -9.0700 73° East 469 540 37,000  Level FlightAware
04:14AM 49.5110 -8.9580 72° East 464 534 37,000  Level FlightAware
04:15AM 49.5340 -8.8460 72° East 460 529 37,000  Level FlightAware
04:15AM 49.5550 -8.7460 72° East 458 527 37,000  Level FlightAware
04:16AM 49.5770 -8.6360 73° East 458 527 37,000  Level FlightAware
04:17AM 49.5980 -8.5310 73° East 457 526 37,000  Level FlightAware
04:17AM 49.6200 -8.4240 72° East 457 526 37,000  Level FlightAware
04:18AM 49.6430 -8.3060 73° East 457 526 37,000  Level FlightAware
04:18AM 49.6650 -8.1980 72° East 457 526 37,000  Level FlightAware
04:19AM 49.6900 -8.0890 70° East 458 527 37,000  Level FlightAware
04:20AM 49.7110 -7.9910 72° East 457 526 37,000 -120 Level FlightAware
04:20AM 49.7369 -7.8707 72° East 458 527 36,900  Descending FlightAware UK
04:20AM 49.7360 -7.8760 72° East 456 525 37,000 -600 Climbing FlightAware
04:21AM 49.7578 -7.7785 72° East 466 536 36,600 -840 Descending FlightAware UK
04:21AM 49.7610 -7.7630 72° East 461 531 36,500 -960 Descending FlightAware
04:21AM 49.7820 -7.6620 72° East 454 522 36,000 -960 Descending FlightAware
04:22AM 49.8070 -7.5480 71° East 444 511 35,400 -900 Descending FlightAware
04:22AM 49.8270 -7.4510 72° East 438 504 35,000 -360 Descending FlightAware
04:23AM 49.8490 -7.3460 72° East 438 504 35,000  Level FlightAware
04:24AM 49.8690 -7.2540 72° East 440 506 35,000 -180 Level FlightAware
04:24AM 49.8705 -7.2325 72° East 462 532 34,900  Descending FlightAware UK
04:24AM 49.8907 -7.1496 72° East 440 506 35,000 60 Climbing FlightAware ADS-B (EGCW)
04:25AM 49.9150 -7.0320 72° East 439 505 35,000  Level FlightAware
04:25AM 49.9061 -7.0759 253° West 439 505 35,000  Level FlightAware ADS-B (EGCW)
04:25AM 49.9370 -6.9250 72° East 438 504 35,000  Level FlightAware
04:26AM 49.9600 -6.8170 72° East 437 503 35,000  Level FlightAware
04:27AM 49.9820 -6.7100 72° East 436 502 35,000  Level FlightAware
04:27AM 50.0010 -6.6130 72° East 435 501 35,000  Level FlightAware
04:27AM 50.0026 -6.6063 72° East 462 532 35,000  Level FlightAware UK
04:28AM 50.0207 -6.5171 72° East 462 532 35,000  Level FlightAware UK
04:28AM 50.0220 -6.5090 72° East 435 501 35,000  Level FlightAware
04:28AM 50.0450 -6.3970 72° East 433 498 35,000  Level FlightAware
04:29AM 50.0561 -6.3425 72° East 433 498 35,000  Level FlightAware ADS-B (EGCW)
04:29AM 50.0740 -6.2499 72° East 462 532 35,000  Level FlightAware UK
04:29AM 50.0860 -6.1950 72° East 430 495 35,000  Level FlightAware
04:30AM 50.1070 -6.0880 73° East 429 494 35,000  Level FlightAware
04:30AM 50.0802 -6.2222 253° West 431 496 35,000  Level FlightAware ADS-B (EGCW)
04:31AM 50.1441 -5.8962 253° West 460 529 35,000  Level FlightAware UK
04:31AM 50.1460 -5.8870 253° West 430 495 35,000  Level FlightAware
04:32AM 50.1670 -5.7810 73° East 430 495 35,000  Level FlightAware
04:32AM 50.1756 -5.7379 73° East 431 496 35,000  Level FlightAware ADS-B (EGCW)
04:32AM 50.1811 -5.7094 73° East 428 493 35,000  Level FlightAware ADS-B (EGDX / DGX)
04:33AM 50.1996 -5.6112 73° East 462 532 35,000  Level FlightAware UK
04:33AM 50.2141 -5.5388 73° East 430 495 35,000  Level FlightAware ADS-B (EGCW)
04:34AM 50.2337 -5.4332 73° East 458 527 35,000  Level FlightAware UK
04:34AM 50.2513 -5.3443 73° East 434 499 35,000  Level FlightAware ADS-B (EGCW)
04:35AM 50.2714 -5.2362 73° East 462 532 35,000  Level FlightAware UK
04:35AM 50.2756 -5.2161 73° East 434 499 35,000  Level FlightAware ADS-B (EGCW)
04:35AM 50.2932 -5.1233 73° East 435 501 35,000  Level FlightAware ADS-B (EGCW)
04:36AM 50.3091 -5.0380 74° East 435 501 35,000  Level FlightAware ADS-B (EGCW)
04:37AM 50.3308 -4.9220 74° East 436 502 35,000  Level FlightAware ADS-B (EGCW)
04:37AM 50.3481 -4.8293 74° East 433 498 35,000  Level FlightAware ADS-B (EGHH / BOH)
04:38AM 50.3670 -4.7271 74° East 432 497 35,000  Level FlightAware ADS-B (EGHH / BOH)
04:38AM 50.3838 -4.6357 74° East 434 499 35,000  Level FlightAware ADS-B (EGHH / BOH)
04:39AM 50.4028 -4.5315 74° East 434 499 35,000  Level FlightAware ADS-B (EGCW)
04:39AM 50.4192 -4.4410 74° East 435 501 35,000  Level FlightAware ADS-B (EGCW)
04:40AM 50.4391 -4.3313 74° East 434 499 35,000  Level FlightAware ADS-B (EGHH / BOH)
04:40AM 50.4553 -4.2414 74° East 434 499 35,000  Level FlightAware ADS-B (EGHH / BOH)
04:41AM 50.4710 -4.1534 74° East 433 498 35,000 -300 Level FlightAware ADS-B (EGCW)
04:41AM 50.4883 -4.0563 74° East 425 489 34,700 -780 Descending FlightAware ADS-B (EGCW)
04:42AM 50.4542 -4.2474 254° West 424 488 34,400 -1,080 Descending FlightAware ADS-B (EGDX / DGX)
04:42AM 50.5145 -3.9080 74° East 418 481 33,800 -1,140 Descending FlightAware ADS-B (EGCW)
04:43AM 50.5335 -3.8003 74° East 414 476 33,100 -1,020 Descending FlightAware ADS-B (EGCW)
04:43AM 50.5491 -3.7101 75° East 409 471 32,700 -900 Descending FlightAware ADS-B (EGHH / BOH)
04:44AM 50.5542 -3.6814 75° East 408 470 32,500 -1,020 Descending FlightAware ADS-B
04:44AM 50.5580 -3.6590 75° East 408 470 32,400 -960 Descending FlightAware ADS-B
04:44AM 50.5309 -3.8150 255° West 408 470 32,100 -1,080 Descending FlightAware ADS-B (EGDX / DGX)
04:44AM 50.5722 -3.5771 75° East 405 466 31,900 -1,020 Descending FlightAware ADS-B (EGHH / BOH)
04:44AM 50.5755 -3.5581 75° East 404 465 31,800 -780 Descending FlightAware ADS-B
04:44AM 50.5800 -3.5320 75° East 403 464 31,700 -840 Descending FlightAware ADS-B
04:45AM 50.5894 -3.4774 75° East 401 461 31,400 -1,020 Descending FlightAware ADS-B
04:45AM 50.5921 -3.4618 75° East 401 461 31,300 -1,080 Descending FlightAware ADS-B
04:45AM 50.6061 -3.3803 75° East 399 459 30,800 -900 Descending FlightAware ADS-B
04:46AM 50.6146 -3.3305 75° East 398 458 30,600 -960 Descending FlightAware ADS-B
04:46AM 50.6179 -3.3114 75° East 400 460 30,400 -1,080 Descending FlightAware ADS-B (EGCW)
04:46AM 50.6323 -3.2263 75° East 397 457 29,900 -960 Descending FlightAware ADS-B (EGCW)
04:47AM 50.6480 -3.1331 75° East 395 455 29,400 -960 Descending FlightAware ADS-B
04:47AM 50.6589 -3.0686 75° East 394 453 28,900 -1,020 Descending FlightAware ADS-B (EGDX / DGX)
04:48AM 50.6767 -2.9618 75° East 391 450 28,400 -900 Descending FlightAware ADS-B (EGDX / DGX)
04:48AM 50.6912 -2.8748 75° East 389 448 28,000 -840 Descending FlightAware ADS-B
04:48AM 50.6912 -2.8748 75° East 389 448 27,900 -720 Descending FlightAware ADS-B (EGDX / DGX)
04:49AM 50.7063 -2.7837 75° East 374 430 27,600 -840 Descending FlightAware ADS-B (EGDM)
04:49AM 50.6969 -2.8406 255° West 374 430 27,400 -720 Descending FlightAware ADS-B (EGDX / DGX)
04:49AM 50.7169 -2.7196 75° East 363 418 27,300 -780 Descending FlightAware ADS-B (EGHH / BOH)
04:50AM 50.7228 -2.6835 75° East 361 415 27,000 -540 Descending FlightAware ADS-B (EGDM)
04:50AM 50.7311 -2.6323 76° East 360 414 27,000 -240 Level FlightAware ADS-B
04:50AM 50.7355 -2.6052 76° East 358 412 26,900 -780 Descending FlightAware ADS-B
04:50AM 50.7440 -2.5505 76° East 357 411 26,600 -960 Descending FlightAware ADS-B (EGHH / BOH)
04:51AM 50.7454 -2.5234 85° East 356 410 26,400 -960 Descending FlightAware ADS-B
04:51AM 50.7445 -2.5003 94° East 354 407 26,300 -1,200 Descending FlightAware ADS-B
04:51AM 50.7430 -2.4854 99° East 354 407 26,100 -1,680 Descending FlightAware ADS-B (EGDM)
04:51AM 50.7341 -2.6140 264° West 360 414 26,000 -480 Descending FlightAware ADS-B (EGWE)
04:51AM 50.7384 -2.4585 87° East 353 406 26,000 -540 Level FlightAware ADS-B (EGDM)
04:51AM 50.7341 -2.6140 268° West 360 414 25,900 -840 Descending FlightAware ADS-B (EGWE)
04:51AM 50.7306 -2.4160 92° East 353 406 25,800 -840 Descending FlightAware ADS-B
04:52AM 50.7224 -2.3719 106° East 352 405 25,500 -960 Descending FlightAware ADS-B
04:52AM 50.7072 -2.2934 107° East 349 402 25,000 -1,020 Descending FlightAware ADS-B (EGHH / BOH)
04:53AM 50.6933 -2.2210 107° East 346 398 24,500 -1,260 Descending FlightAware ADS-B (EGHH / BOH)
04:53AM 50.6783 -2.1419 107° East 341 392 23,700 -1,500 Descending FlightAware ADS-B (EGDM)
04:54AM 50.6646 -2.0703 107° East 338 389 22,900 -1,560 Descending FlightAware ADS-B
04:54AM 50.6504 -1.9965 107° East 335 386 22,100 -1,500 Descending FlightAware ADS-B (EGHH / BOH)
04:55AM 50.6367 -1.9253 107° East 333 383 21,400 -1,440 Descending FlightAware ADS-B (EGDM)
04:55AM 50.6168 -1.8230 107° East 331 381 20,300 -1,500 Descending FlightAware ADS-B
04:56AM 50.6021 -1.7479 107° East 323 372 19,500 -1,560 Descending FlightAware ADS-B
04:56AM 50.5979 -1.7258 107° East 323 372 19,200 -1,680 Descending FlightAware ADS-B (EGDM)
04:56AM 50.5942 -1.7067 107° East 320 368 19,000 -1,380 Descending FlightAware ADS-B (EGDM)
04:57AM 50.5815 -1.6357 106° East 320 368 18,300 -1,380 Descending FlightAware ADS-B (EGDM)
04:57AM 50.5810 -1.6188 93° East 317 365 18,100 -1,320 Descending FlightAware ADS-B (EGHH / BOH)
04:57AM 50.5815 -1.6357 273° West 320 368 17,900 -840 Descending FlightAware ADS-B (EGDM)
04:57AM 50.5891 -1.5679 80° East 315 362 17,800 -720 Descending FlightAware ADS-B
04:57AM 50.5929 -1.5555 65° Northeast 312 359 17,700 -840 Descending FlightAware ADS-B
04:58AM 50.6141 -1.4892 63° Northeast 314 361 17,300 -780 Descending FlightAware ADS-B (EGHH / BOH)
04:59AM 50.6348 -1.4263 63° Northeast 301 346 16,900 -720 Descending FlightAware ADS-B (EGHH / BOH)
04:59AM 50.6576 -1.3570 63° Northeast 301 346 16,500 -720 Descending FlightAware ADS-B (EGDM)
04:59AM 50.6659 -1.3400 53° Northeast 303 349 16,400 -840 Descending FlightAware ADS-B (EGDM)
05:00AM 50.6764 -1.3248 42° Northeast 307 353 16,200 -720 Descending FlightAware ADS-B (EGDM)
05:00AM 50.7144 -1.2844 34° Northeast 308 354 15,900 -780 Descending FlightAware ADS-B (EGDM)
05:01AM 50.7526 -1.2460 32° Northeast 308 354 15,400 -1,080 Descending FlightAware ADS-B (EGDM)
05:01AM 50.7840 -1.2138 33° Northeast 304 350 14,800 -1,200 Descending FlightAware ADS-B (EGDM)
05:01AM 50.7936 -1.2009 40° Northeast 296 341 14,700 -840 Descending FlightAware ADS-B (EGHH / BOH)
05:01AM 50.8083 -1.1724 51° Northeast 292 336 14,500 -720 Descending FlightAware ADS-B
05:02AM 50.8331 -1.1189 54° Northeast 275 316 14,100 -840 Descending FlightAware ADS-B (EGDM)
05:03AM 50.8583 -1.0648 54° Northeast 269 310 13,600 -960 Descending FlightAware ADS-B
05:03AM 50.8794 -1.0191 54° Northeast 266 306 13,100 -900 Descending FlightAware ADS-B (EGDM)
05:03AM 50.8875 -1.0015 54° Northeast 260 299 13,000 -180 Descending FlightAware ADS-B
05:04AM 50.9100 -0.9525 54° Northeast 269 310 13,000  Level FlightAware ADS-B (EGDM)
05:04AM 50.9130 -0.9460 54° Northeast 270 311 13,000  Level FlightAware ADS-B (EGDM)
05:04AM 50.9360 -0.8963 54° Northeast 270 311 13,000  Level FlightAware ADS-B
05:05AM 50.9505 -0.8668 52° Northeast 270 311 13,000  Level FlightAware ADS-B (EGDM)
05:05AM 50.9796 -0.8278 40° Northeast 269 310 13,000  Level FlightAware ADS-B (EGHH / BOH)
05:05AM 50.9976 -0.8061 37° Northeast 275 316 13,000  Level FlightAware ADS-B (EGDM)
05:06AM 51.0090 -0.7926 37° Northeast 275 316 13,000  Level FlightAware ADS-B (EGDM)
05:06AM 51.0299 -0.7682 36° Northeast 270 311 13,000  Level FlightAware ADS-B
05:06AM 51.0398 -0.7566 36° Northeast 269 310 13,000 -300 Level FlightAware ADS-B
05:07AM 51.0703 -0.7212 36° Northeast 278 320 12,800 -720 Descending FlightAware ADS-B
05:07AM 51.1022 -0.6843 36° Northeast 277 319 12,300 -1,140 Descending FlightAware ADS-B
05:07AM 51.1169 -0.6672 36° Northeast 275 316 11,900 -1,080 Descending FlightAware ADS-B (EGDM)
05:08AM 51.1307 -0.6512 36° Northeast 268 308 11,800 -960 Descending FlightAware ADS-B
05:08AM 51.1554 -0.6224 36° Northeast 273 314 11,300 -780 Descending FlightAware ADS-B (EGDM)
05:09AM 51.1938 -0.5776 36° Northeast 266 306 11,000 -300 Descending FlightAware ADS-B
05:09AM 51.2231 -0.5432 36° Northeast 260 299 11,000  Level FlightAware ADS-B
05:09AM 51.2406 -0.5228 36° Northeast 268 308 11,000  Level FlightAware ADS-B
05:10AM 51.2518 -0.5098 36° Northeast 267 307 11,000  Level FlightAware ADS-B
05:10AM 51.2744 -0.4831 36° Northeast 269 310 11,000  Level FlightAware ADS-B (EGDM)
05:11AM 51.3130 -0.4380 36° Northeast 264 304 11,000  Level FlightAware
05:11AM 51.3309 -0.4166 36° Northeast 274 315 11,000  Level FlightAware UK
05:11AM 51.3362 -0.4071 40° Northeast 262 302 11,000  Level FlightAware ADS-B
05:11AM 51.3414 -0.3908 63° Northeast 271 312 11,000  Level FlightAware ADS-B
05:11AM 51.3436 -0.3710 80° East 257 296 11,000  Level FlightAware ADS-B
05:11AM 51.3414 -0.3908 260° West 271 312 11,000  Level FlightAware ADS-B
05:12AM 51.3426 -0.3526 87° East 254 292 11,000  Level FlightAware ADS-B
05:12AM 51.3378 -0.3337 112° Southeast 255 293 11,000  Level FlightAware ADS-B
05:12AM 51.3311 -0.3200 128° Southeast 248 285 11,000  Level FlightAware ADS-B
05:12AM 51.3258 -0.3130 140° Southeast 255 293 11,000  Level FlightAware ADS-B
05:12AM 51.3154 -0.3028 149° Southeast 257 296 11,000  Level FlightAware ADS-B
05:12AM 51.3138 -0.3012 148° Southeast 255 293 11,000  Level FlightAware ADS-B (EGWE)
05:12AM 51.3154 -0.3028 328° Northwest 256 295 11,000  Level FlightAware ADS-B
05:13AM 51.2816 -0.2673 147° Southeast 255 293 11,000  Level FlightAware ADS-B
05:13AM 51.2601 -0.2574 164° South 256 295 11,000  Level FlightAware ADS-B
05:13AM 51.2478 -0.2602 188° South 262 302 11,000  Level FlightAware ADS-B
05:13AM 51.2364 -0.2680 203° Southwest 277 319 11,000  Level FlightAware ADS-B
05:13AM 51.3138 -0.3012 345° North 257 296 11,000  Level FlightAware ADS-B (EGWE)
05:13AM 51.2266 -0.2809 172° South 278 320 11,000  Level FlightAware ADS-B
05:14AM 51.2196 -0.2977 237° Southwest 289 333 11,000  Level FlightAware ADS-B
05:14AM 51.2161 -0.3192 255° West 292 336 11,000  Level FlightAware ADS-B
05:14AM 51.2169 -0.3410 273° West 295 339 11,000  Level FlightAware ADS-B
05:14AM 51.2172 -0.3090 89° East 296 341 11,000  Level FlightAware ADS-B (EGDM)
05:14AM 51.2221 -0.3612 279° West 292 336 11,000  Level FlightAware ADS-B
05:14AM 51.2306 -0.3772 310° West 294 338 11,000  Level FlightAware ADS-B
05:14AM 51.2224 -0.3622 131° Southeast 296 341 11,000  Level FlightAware ADS-B (EGDM)
05:14AM 51.2410 -0.3887 318° Northwest 292 336 11,000 -780 Level FlightAware ADS-B
05:15AM 51.2530 -0.4004 329° Northwest 290 334 10,800 -1,740 Descending FlightAware ADS-B
05:15AM 51.2224 -0.3622 142° Southeast 296 341 10,600 -1,200 Descending FlightAware ADS-B (EGDM)
05:15AM 51.2655 -0.4121 324° Northwest 295 339 10,600 -600 Level FlightAware ADS-B
05:15AM 51.2439 -0.3916 149° Southeast 294 338 10,500 -1,080 Descending FlightAware ADS-B
05:15AM 51.3053 -0.4478 330° Northwest 281 323 10,000 -1,140 Descending FlightAware ADS-B
05:15AM 51.2624 -0.4092 151° Southeast 284 327 9,900 -960 Descending FlightAware ADS-B
05:16AM 51.3287 -0.4562 336° Northwest 276 318 9,700 -900 Descending FlightAware ADS-B
05:16AM 51.3425 -0.4504 15° North 264 304 9,500 -1,200 Descending FlightAware ADS-B
05:16AM 51.3520 -0.4406 33° Northeast 258 297 9,300 -1,320 Descending FlightAware ADS-B
05:16AM 51.3591 -0.4276 49° Northeast 248 285 9,100 -900 Descending FlightAware ADS-B
05:16AM 51.3643 -0.4101 65° Northeast 248 285 9,000 -300 Descending FlightAware ADS-B
05:17AM 51.3661 -0.3911 81° East 250 288 9,000  Level FlightAware ADS-B
05:17AM 51.3646 -0.3731 97° East 250 288 9,000  Level FlightAware ADS-B
05:17AM 51.3599 -0.3559 114° Southeast 247 284 9,000  Level FlightAware ADS-B
05:17AM 51.3580 -0.3514 124° Southeast 251 289 9,000  Level FlightAware ADS-B (EGWE)
05:17AM 51.3522 -0.3414 133° Southeast 253 291 9,000  Level FlightAware ADS-B
05:17AM 51.3428 -0.3309 145° Southeast 250 288 9,000  Level FlightAware ADS-B
05:18AM 51.2980 -0.2850 147° Southeast 251 289 9,000  Level FlightAware
05:18AM 51.2800 -0.2680 149° Southeast 259 298 9,000  Level FlightAware
05:19AM 51.2600 -0.2610 168° South 258 297 9,000  Level FlightAware
05:19AM 51.2421 -0.2682 194° South 274 315 9,000  Level FlightAware ADS-B (EGWE)
05:19AM 51.2338 -0.2761 211° Southwest 276 318 9,000  Level FlightAware ADS-B (EGWE)
05:19AM 51.2184 -0.3369 248° West 285 328 9,000  Level FlightAware ADS-B
05:20AM 51.2222 -0.3567 287° West 284 327 9,000  Level FlightAware ADS-B
05:20AM 51.2410 -0.3873 315° West 269 310 9,000  Level FlightAware ADS-B
05:20AM 51.2292 -0.3728 142° Southeast 284 327 9,000  Level FlightAware ADS-B (EGWE)
05:20AM 51.2627 -0.4081 327° Northwest 270 311 9,000  Level FlightAware ADS-B
05:21AM 51.2852 -0.4292 330° Northwest 268 308 9,000  Level FlightAware ADS-B
05:21AM 51.3217 -0.4559 335° Northwest 264 304 9,000  Level FlightAware ADS-B
05:22AM 51.3540 -0.4340 23° Northeast 256 295 9,000  Level FlightAware
05:22AM 51.3630 -0.3980 68° East 249 287 9,000  Level FlightAware
05:22AM 51.3569 -0.3613 105° East 247 284 9,000  Level FlightAware ADS-B
05:23AM 51.3116 -0.4524 232° Southwest 256 295 9,000  Level FlightAware ADS-B
05:23AM 51.3487 -0.3464 61° Northeast 253 291 9,000  Level FlightAware ADS-B (EGWE)
05:23AM 51.3377 -0.3351 147° Southeast 258 297 9,000  Level FlightAware ADS-B
05:23AM 51.3164 -0.3262 165° South 259 298 9,000  Level FlightAware ADS-B
05:23AM 51.3487 -0.3464 339° North 273 314 9,000  Level FlightAware ADS-B (EGWE)
05:23AM 51.2996 -0.3366 173° South 277 319 9,000  Level FlightAware ADS-B
05:24AM 51.3487 -0.3464 353° North 286 329 9,000 -240 Level FlightAware ADS-B (EGWE)
05:24AM 51.3020 -0.4490 234° Southwest 280 322 8,800 -300 Descending FlightAware
05:24AM 51.3030 -0.4590 279° West 279 321 8,800 -720 Level FlightAware
05:25AM 51.3060 -0.5000 277° West 275 316 8,500 -1,080 Descending FlightAware
05:25AM 51.3090 -0.5400 277° West 271 312 8,100 -780 Descending FlightAware
05:25AM 51.3037 -0.4677 97° East 281 323 8,000 -300 Descending FlightAware ADS-B (EGWE)
05:26AM 51.3161 -0.6342 277° West 271 312 7,900 -420 Descending FlightAware ADS-B
05:26AM 51.3182 -0.6642 276° West 269 310 7,700 -720 Descending FlightAware ADS-B
05:27AM 51.3312 -0.7505 284° West 255 293 7,200 -780 Descending FlightAware ADS-B
05:27AM 51.3407 -0.7729 304° West 259 298 7,000 -840 Descending FlightAware ADS-B (EGDM)
05:27AM 51.3513 -0.7970 305° West 259 298 6,800 -720 Descending FlightAware ADS-B
05:28AM 51.3652 -0.8281 306° West 255 293 6,600 -720 Descending FlightAware ADS-B
05:28AM 51.3813 -0.8637 306° West 229 264 6,300 -780 Descending FlightAware ADS-B
05:28AM 51.3945 -0.8790 324° Northwest 214 246 6,100 -720 Descending FlightAware ADS-B
05:29AM 51.4042 -0.8824 348° North 213 245 6,000 -600 Descending FlightAware ADS-B
05:29AM 51.4348 -0.8781 North 185 213 5,700 -720 Descending FlightAware ADS-B
05:30AM 51.4520 -0.8420 53° Northeast 179 206 5,200 -1,140 Descending FlightAware
05:30AM 51.4642 -0.8141 55° Northeast 181 208 4,600 -1,440 Descending FlightAware ADS-B
05:31AM 51.4760 -0.7730 65° Northeast 178 205 3,800 -1,200 Descending FlightAware
05:31AM 51.4760 -0.7350 90° East 176 203 3,300 -840 Descending FlightAware
05:32AM 51.4760 -0.7090 90° East 173 199 3,100 -900 Descending FlightAware
05:32AM 51.4770 -0.6930 84° East 163 188 2,800 -900 Descending FlightAware
05:32AM 51.4770 -0.6680 90° East 144 166 2,600 -720 Descending FlightAware
05:33AM 51.4770 -0.6380 90° East 143 165 2,200 -780 Descending FlightAware
05:33AM 51.4770 -0.6120 90° East 142 163 1,900 -900 Descending FlightAware
05:33AM 51.4770 -0.5850 90° East 147 169 1,500 -960 Descending FlightAware
05:34AM 51.4770 -0.5670 90° East 146 168 1,300 -780 Descending FlightAware
05:34AM 51.4770 -0.5420 90° East 140 161 1,000 -720 Descending FlightAware
05:34AM 51.4770 -0.5220 90° East 141 162 800 -900 Descending FlightAware
05:35AM 51.4775 -0.4801 90° East 150 173 200 -960 Descending FlightAware UK
05:35AM 51.4780 -0.4810 90° East 139 160 200  Level FlightAware